Погода в Кузьмовке

Погода в Кузьмовке : погода сейчас, прогноз погоды и архив. Всё, что Вы хотите узнать о погоде в Кузьмовке!

Поиск расширенной информации на нашем сайте:

Другие новости

Новости СМИ2

Главная страница сайта

Новости сайта

02.10.2013

Напоминаем, что на нашем новом сайте вы можете получить высокодетализированные прогнозы погоды по пунктам России, СНГ и мира (включающие важные для авиации метеовеличины, такие как направление и скорость ветра, видимость, явления погоды, количество и форма облачности, нижняя и верхняя граница облачности), а также ознакомиться с разнообразными материалами по авиационной метеорологии и подборкой полезных ссылок на эту тему.

Сайт Метеоцентр.Азия посвящён разработке технологий оптимизации авиаметеорологического обслуживания, включая проектирование и перспективное создание нескольких автоматизированных авиаметеорологических систем:
- система выпуска высокодетальных прогностических карт явлений погоды для нижнего воздушного пространства по России и ближнему зарубежью;
- система верификации прогнозов TAF (выпускаемых синоптиками официальных АМСГ РФ и ближнего зарубежья) и AUTOTAF (выпускаемых сайтом Метеоцентр.Азия) - выявление ошибок, онлайн-сопоставление с фактической погодой METAR, автоматическое внесение коррективов в прогнозы при резком отклонении фактической погоды от прогноза, подсчёт оправдываемости прогнозов по элементам и в целом;
- система обработки, анализа и отображения авиаметеорологической информации для применения провайдерами метеорологической информации.

Рекомендуем: Комплексные системы безопасности и слаботочные сети читать дальше.

Погода в Кузьмовке - сегодня

Время (UTC), дата Ветер
(°,м/с) 
Видим.   Явления Облачность Т
(°С)
Тd
(°С)
f(%) Тe
(°С)
Pmin
(гПа)
dP
(гПа)
Po
(мм)
O2
(г/м3)
Тmin Tmax R s Состояние
почвы
00 20.04.17 270 (З) 20000 м    10/10 600 м кучево-дожд. 
[Cb cap]
-7.8 -13.4 64 -9  1006.3  2.4  749  312  -7.8    972  87  равномерный
мокрый или
старый снег
100% 
03 20.04.17 270 (З) 10 км  слаб. ливневой снег  10/10 600 м кучево-дожд. 
[Cb cap]
-7 -12.2 66 -11  1007.5  1.2  750  311           
06 20.04.17 290 (З) 4000 м  слаб. ливневой снег  10/10 600 м кучево-дожд. 
[Cb cap]
-7.4 -12.8 65 -11  1009.6  2.1  751  312           
09 20.04.17 290 (З) 10 км  слаб. ливневой снег  10/10 600 м кучево-дожд. 
[Cb cap]
-6 -11.8 63 -9  1011.9  2.4  753  311           
12 20.04.17 290 (З) 10 км  слаб. ливневой снег  10/10 600 м кучево-дожд. 
[Cb cap]
-6.2 -12.1 63 -9  1014.2  2.2  755  312    -6  0.3     
15 20.04.17 290 (З) 10 км  слаб. ливневой снег  10/10 600 м кучево-дожд. 
[Cb cap]
-7.5 -12.4 68 -10  1015.4  1.1  755  314           
21 20.04.17 270 (З) 20000 м    10/5 600 м верхняя 
[Sc|Cs]
-9.6 -13.7 72 -9  1017.3  0.3  757  317           
00 21.04.17 090 (В) 20000 м    10/4 600 м верхняя 
[Sc|Cs]
-12.2 -14.2 85 -12  1018.7  1.4  758  321  -12.2    0.0  34  равномерный
мокрый или
старый снег
100% 
03 21.04.17 270 (З) 10 км  слаб. снег  10/6 600 м средняя 
[Sc|As op]
-7.2 -11.5 71 -9  1019.8  1.2  759  315           
06 21.04.17 270 (З) 10 км  слаб. снег  10/6 600 м средняя 
[Sc|As trans]
-5.5 -11.1 65 -7  1020.7  760  313           
09 21.04.17 340 (С) 20000 м  {снег}  10/10 600 м 
[Sc]
-4.2 -12.1 54 -6  1021.8  1.1  760  312           
12 21.04.17 270 (З) 20000 м  {снег}  10/10 1000 м 
[Sc]
-4.5 -12 56 -6  1023.6  1.7  762  313    -3.7  0.2     
15 21.04.17 320 (СЗ) 20000 м    10/10 1000 м 
[Sc]
-5 -11.8 59 -5  1024.3  0.7  762  314           
18 21.04.17 тихо ()   20000 м    10/10 1000 м 
[Sc]
-6.4 -11.4 68 -6  1024.4  0.1  762  316           
21 21.04.17 тихо ()   20000 м    10/10 1000 м 
[Sc]
-7.5 -11.9 71 -8  1025.7  1.2  763  317           
00 22.04.17 тихо ()   20000 м    ясно 
-11.4 -14.2 80 -11  1026.7  0.9  764  322  -12      89  равномерный
мокрый или
старый снег
100% 
03 22.04.17 тихо ()   20000 м    3/0 верхняя 
[Ci fib]
-4.2 -10.6 61 -4  1026.2  -0.3  764  314           
06 22.04.17 180 (Ю) 20000 м    8/5 2000 м средняя, верхняя 
[Ac trans|Ci sp]
+0.8 -10.2 44 +1  1024.6  -1.5  762  307           
09 22.04.17 180 (Ю) 20000 м    9/6 2000 м средняя, верхняя 
[Ac und|Ci fib]
+3.2 -9.1 40 +4  1022.7  -1.7  761  304           
12 22.04.17 230 (ЮЗ) 20000 м    9/9 2000 м средняя 
[Ac und]
+3.7 -9.2 38 +5  1021.6  -1  760  303    +4       
15 22.04.17 160 (Ю) 20000 м    8/8 2000 м средняя 
[Ac und]
-1.1 -8.1 59 -1  1021.1  -0.6  760  308           
18 22.04.17 тихо ()   20000 м    8/8 2000 м средняя 
[Ac und]
-0.9 -6.2 67 -1  1021.1  -0.1  760  308           
03 23.04.17 180 (Ю) 20000 м    10/0 верхняя 
[Ci fib]
+4 -7.7 42 +5  1020.7  -0.5  760  303           
09 23.04.17 180 (Ю) 20000 м    10/0 верхняя 
[Cs]
+9.3 -9 26 +10  1018.8  -0.8  758  296           
15 23.04.17 110 (В) 20000 м    8/8 2000 м средняя 
[Ac und]
+0.2 -3.5 76 +1  1019.3  0.7  759  306           
Время (UTC), дата Ветер
(°,м/с) 
Видим.   Явления Облачность Т
(°С)
Тd
(°С)
f(%) Тe
(°С)
Pmin
(гПа)
dP
(гПа)
Po
(мм)
O2
(г/м3)
Тmin Tmax R s Состояние
почвы

Для получения пояснительной информации подведите курсор к названию столбца.

ПОГОДА в Кузьмовке - архив

Всё, что Вы хотите узнать о погоде в Кузьмовке - удобно и подробно!

Выберите нужную дату (начиная с 1 января 2015* года) и нажмите кнопку "Найти".
Будут отображены архивные сводки погоды по пункту Кузьмовка, начиная с указанной даты.


Отображать данные в формате CSV (для использования в таблицах Excel)


Внимание! Наш архив погоды предназначен исключительно для личного некоммерческого использования в познавательных целях. Если Вам необходимы официальные справки о состоянии погоды (для производственных, юридических, коммерческих и т.п. целей), обращайтесь в органы Росгидромета.

*Примечание: данная дата относится к архиву по метеостанциям СССР (Россия, СНГ, Балтия).
Архив по метеостанциям Зарубежной Европы и Азии (кроме Китая) хранится 10 дней, по другим регионам земного шара (Китай, Африка, Америка, Австралия, Океания) - 1 день.

Кузьмовка - район местоположения метеостанции


Название, широта, долгота, высота метеостанции:
Кузьмовка 62.3°ш. 92.1°д. 60 м над ур. моря [Российская Федерация]

Дополнительная информация

В oтличие oт бoльшинства пoгoдных сайтoв мы публикуем пoдрoбную метеoинфoрмацию в детальнoм прoфессиoнальнoм фoрмате.

Характеристики температуры и влажнoсти вoздуха измеряются на высoте 2 м в тени вдали oт зданий и деревьев.
Скoрoсть ветра измеряется на высoте 10 м (на урoвне рoста челoвека скoрoсть ветра ниже в 1.5-2 раза). Если метеoстанция нахoдится в гoрoде или в лесу, тo скoрoсть ветра занижена на 2-4 м/с пo сравнению с oткрытым местoм. Скoрoсть ветра над акватoриями крупных рек и oзёр, а также на вершинах хoлмoв на 2-5 м/с выше, чем в oбычных услoвиях.
Атмoсфернoе давление в разных тoчках местнoсти мoжет значительнo oтличаться oт давления на метеoстанции, в зависимoсти oт услoвий рельефа (при пoдъёме на 10 м давление пoнижается примернo на 1 мм рт.ст.).